Theta_e
337 339 340 340 340 342 343 343 343 343 342 343 343 343 344 342 342 341 343 344 342 340 340 338 336 335 336 336 337 340 339 341 341 341 340 340 341 341 342 343 342 342 341 341 339 338 336 336 336 335 336 335 335 334 335 337 340 340 340 341 339 339 339 342 341 340 337 335 336 335 335 337 338 340 340 340 338 338 338 338 339 338 339 337 338
337 336 338 338 339 340 342 341 342 341 341 342 342 342 342 342 342 341 341 342 342 342 341 339 340 338 337 336 338 338 338 336 337 338 340 340 341 341 343 343 342 342 341 339 339 338 336 335 334 336 336 335 335 336 334 335 337 339 340 337 340 338 338 340 341 338 335 331 328 327 331 333 335 336 337 339 340 339 338 338 339 339 337 338 339
334 335 337 337 337 338 339 340 341 342 341 341 343 342 341 341 341 341 341 341 340 341 341 339 340 339 340 340 339 337 339 341 341 341 342 341 343 343 342 342 342 342 341 339 338 337 338 337 335 336 335 336 334 335 337 336 338 338 338 337 336 338 336 340 341 339 332 331 330 326 320 322 328 331 334 336 339 337 335 335 336 336 337 338 339
331 333 334 336 337 337 337 339 340 339 339 340 340 340 340 340 339 339 340 342 342 342 340 341 340 339 339 339 338 337 336 339 341 342 342 343 342 344 342 342 342 342 342 341 339 339 338 338 337 336 336 337 337 336 336 336 339 339 339 336 335 331 333 335 339 340 334 331 324 326 326 325 321 324 328 332 337 336 334 335 336 335 338 337 338
332 332 333 334 336 336 336 337 338 338 338 339 339 339 340 340 341 341 340 339 340 340 340 340 340 339 339 338 337 337 338 337 339 339 341 342 340 342 342 342 342 341 341 340 339 339 339 338 337 337 337 336 337 337 336 337 337 339 339 336 332 329 330 332 334 337 339 336 328 325 320 320 320 326 328 328 331 332 335 338 334 334 335 336 336
332 332 332 333 335 335 335 336 336 336 336 337 339 339 340 339 340 340 340 341 340 341 340 339 338 335 334 333 333 333 332 333 334 334 337 339 339 342 340 338 340 341 341 340 339 339 338 338 338 337 336 337 336 337 338 339 337 339 340 340 336 338 335 332 331 335 337 339 338 333 330 323 323 327 325 317 332 335 334 333 334 336 336 335 335
331 331 332 332 333 334 334 334 335 334 334 336 337 338 338 339 340 340 340 340 341 341 342 340 338 337 336 334 335 336 336 336 337 339 338 339 341 341 341 341 341 340 340 339 339 338 338 338 337 337 337 337 337 337 336 336 337 337 337 339 337 337 337 331 331 332 333 333 334 337 338 334 332 327 322 325 323 329 331 333 333 334 335 334 334
328 329 330 333 333 333 333 334 333 332 333 335 335 337 337 338 339 339 340 340 342 342 341 340 337 337 336 335 335 335 337 337 338 340 342 340 340 342 343 342 341 341 341 340 339 339 339 338 337 336 338 337 336 335 337 338 337 336 338 338 339 337 335 333 332 332 330 328 336 336 335 335 334 335 333 326 325 324 324 331 333 334 334 334 335
327 327 328 328 328 329 330 330 331 331 331 332 332 334 335 337 338 339 340 340 341 342 340 341 340 338 338 336 335 335 336 335 336 337 338 339 339 340 340 340 341 341 340 340 340 339 338 338 337 337 336 336 336 335 337 336 334 333 334 336 337 336 337 336 334 330 333 334 333 334 333 332 333 336 335 333 326 321 323 325 326 332 334 334 335
325 325 326 327 327 328 329 330 330 330 331 332 333 334 335 335 335 336 337 338 340 341 341 340 339 337 337 336 334 335 335 335 336 335 336 338 338 338 339 339 340 339 340 340 338 338 338 338 338 338 336 335 334 336 334 334 334 333 334 335 336 334 335 336 332 337 335 334 332 333 331 330 331 332 333 331 330 328 323 323 327 328 325 328 332
321 321 322 325 326 326 327 326 328 329 331 331 332 332 334 333 333 334 334 336 338 339 338 338 338 337 336 335 333 333 335 335 334 334 335 335 334 336 338 339 341 340 340 340 338 338 337 339 340 338 334 334 334 334 334 334 336 335 334 334 334 333 333 333 334 338 338 333 329 329 331 332 329 329 329 330 330 327 325 325 327 327 326 326 329
321 321 321 323 324 325 325 325 326 327 328 330 331 331 331 332 332 332 333 334 335 336 337 336 336 335 335 333 332 332 333 333 333 334 334 334 335 335 336 336 336 339 339 337 337 338 338 339 338 337 335 334 334 335 335 337 337 336 335 335 334 334 333 333 333 334 334 332 332 335 333 335 335 333 330 330 328 328 327 326 326 327 326 326 329
320 320 320 321 321 321 322 323 325 325 326 328 329 330 330 331 332 331 331 332 333 333 334 335 335 334 334 334 333 334 335 335 334 334 335 334 334 334 335 333 334 335 337 336 338 338 338 337 336 334 334 333 333 333 334 335 334 335 335 333 334 334 335 334 333 335 335 332 332 334 335 334 335 334 330 330 331 332 330 325 326 327 324 324 327
319 319 319 318 318 319 320 321 322 323 325 326 327 328 329 329 330 330 329 331 332 333 334 333 334 335 335 335 335 334 333 334 334 333 335 337 336 335 334 334 335 336 336 336 337 337 336 336 335 335 334 334 334 333 334 334 333 334 334 334 334 335 336 337 337 337 337 332 337 337 332 333 332 331 332 332 333 332 328 327 327 327 327 323 325
316 316 316 317 317 319 319 320 321 322 324 324 325 327 328 328 328 329 329 331 332 332 332 332 333 334 334 334 335 335 335 333 332 333 335 336 336 335 334 335 334 336 336 337 336 336 337 335 334 334 335 334 335 335 334 334 334 336 335 335 336 335 335 335 334 332 330 333 331 333 334 333 332 333 333 333 333 333 331 331 328 325 324 325 323
314 314 315 315 316 317 318 319 320 321 322 323 323 326 327 327 328 328 328 330 331 330 331 332 333 334 334 334 334 334 333 334 334 334 334 335 337 336 335 336 336 335 337 337 336 336 334 332 334 333 335 334 334 333 333 333 335 335 335 334 335 334 333 332 332 333 331 331 333 334 333 333 335 335 333 333 332 334 334 333 331 328 323 320 323
312 313 313 314 316 317 317 317 319 320 321 322 323 325 325 325 326 327 327 329 329 330 331 332 332 332 333 333 333 334 333 333 333 335 336 336 336 337 336 336 337 336 336 336 335 335 334 333 333 333 334 335 334 334 335 333 335 335 333 334 334 335 334 332 333 332 334 332 333 338 333 333 335 337 334 334 335 335 334 334 332 328 326 322 320
312 313 313 314 314 316 317 318 318 319 321 322 323 323 324 324 325 326 326 326 328 330 331 331 331 331 332 332 333 334 334 334 335 335 337 336 336 336 336 335 334 335 336 335 334 333 333 334 335 336 334 334 335 337 335 335 336 334 335 336 335 335 333 332 334 336 337 336 336 335 334 337 337 335 339 336 336 337 335 334 333 331 330 325 323
312 312 312 313 313 314 316 317 319 320 320 321 322 322 323 324 324 325 325 326 328 329 330 330 330 330 332 332 332 332 333 333 334 335 335 334 335 336 336 335 336 335 335 333 333 332 333 335 336 336 334 332 335 337 336 335 335 335 333 332 333 333 331 330 334 336 336 335 332 336 335 334 335 333 336 337 339 338 337 335 333 333 332 332 325
311 311 311 312 313 314 315 316 317 319 320 321 321 322 321 322 323 323 325 326 326 327 328 327 328 329 331 332 332 332 332 332 332 333 333 332 332 334 334 335 335 335 334 333 333 332 332 333 334 335 334 333 332 334 333 333 336 336 337 336 337 337 333 331 332 334 334 332 332 334 333 334 336 337 336 337 337 338 338 335 334 333 332 333 330
309 310 310 311 312 314 315 316 317 318 319 319 319 319 320 321 322 322 322 323 323 324 325 325 325 327 329 331 332 333 335 335 334 333 333 333 332 333 333 334 334 335 334 333 333 333 333 333 333 332 332 333 332 333 334 334 331 334 336 337 336 336 333 333 331 333 333 334 332 330 331 334 337 335 335 336 335 336 337 335 334 332 331 334 332
309 310 311 311 312 313 314 316 316 317 317 318 318 318 319 319 320 320 321 321 322 322 323 324 325 327 328 329 331 333 334 333 334 334 332 331 330 333 334 333 333 335 335 334 334 334 333 331 331 332 336 334 333 333 336 335 335 336 337 336 336 335 333 332 335 333 335 333 333 332 332 334 336 334 336 333 333 334 334 333 332 331 330 332 334
309 310 310 310 311 312 313 314 313 314 316 317 317 317 317 318 318 319 319 320 321 322 323 324 325 326 327 328 329 330 331 331 332 332 331 331 333 334 334 333 333 334 335 336 336 333 331 331 331 333 334 334 335 335 336 336 335 337 335 335 333 333 332 333 335 335 334 334 334 333 333 335 336 335 336 334 333 333 332 330 331 332 329 331 331
309 310 310 309 310 310 310 310 311 313 314 315 315 316 316 316 317 318 318 320 321 321 321 322 324 325 326 327 328 328 329 329 329 332 332 331 334 334 333 333 333 335 335 334 332 332 333 332 330 329 330 330 334 336 335 333 336 336 336 335 333 331 331 334 335 335 335 335 335 334 334 336 336 335 335 333 334 333 333 330 330 333 331 332 333
308 308 308 309 309 309 309 309 310 312 314 315 314 314 314 315 316 316 318 320 320 321 321 321 323 324 325 326 326 327 327 328 329 331 331 333 334 334 333 331 333 334 334 333 333 334 334 333 332 331 330 331 333 331 331 334 332 334 332 330 329 329 331 332 334 336 335 336 335 335 334 335 335 334 336 334 333 335 333 331 331 331 331 332 334
306 306 307 308 309 309 309 310 310 312 312 313 313 314 314 315 316 317 318 319 319 320 320 321 321 322 323 324 324 326 327 327 328 329 330 332 334 333 332 332 333 333 332 333 332 333 333 334 333 331 329 330 329 332 333 332 334 333 332 331 330 331 331 331 334 334 334 336 337 335 335 335 335 335 336 334 334 334 331 331 329 330 331 332 333
304 304 306 308 308 308 308 309 310 311 311 312 313 313 314 314 315 315 317 318 319 320 320 320 320 321 321 321 323 325 326 327 328 329 330 330 330 332 332 332 333 333 333 333 333 332 332 333 333 332 330 331 330 331 334 334 333 331 331 330 331 332 332 331 331 334 335 337 337 336 336 336 335 335 334 334 335 334 333 331 332 332 331 332 333
305 305 305 306 306 307 307 307 308 309 311 312 313 313 313 313 313 315 316 317 318 319 318 318 318 318 319 320 322 325 326 327 327 328 329 330 330 330 331 332 332 331 333 333 333 333 333 333 332 330 331 331 331 332 334 333 332 330 329 330 331 331 330 331 332 333 336 337 337 336 335 335 334 333 333 331 334 335 334 334 334 334 333 332 332
304 304 304 304 304 305 306 307 308 310 310 310 310 311 312 312 313 314 316 317 318 317 317 317 317 317 318 320 322 324 327 326 326 326 328 328 328 328 328 329 329 330 329 329 332 332 330 328 328 330 329 331 332 333 332 332 331 328 329 330 330 329 328 329 330 330 334 336 337 337 337 337 327 319 309 314 315 319 337 333 334 335 334 333 332
302 303 304 304 304 305 305 306 307 308 308 308 309 311 311 312 312 314 315 316 318 318 317 317 316 317 318 320 321 323 324 325 325 326 326 326 326 326 327 328 327 328 327 327 326 327 327 328 327 326 326 329 332 330 311 300 306 328 328 328 329 328 327 328 328 328 331 334 336 335 326 314 311 309 305 300 299 301 305 324 333 333 332 330 330
300 302 305 305 304 304 305 306 307 306 307 307 309 311 313 312 313 314 315 317 317 317 317 317 316 317 317 319 320 321 322 323 324 324 324 325 325 325 325 325 324 325 325 325 326 324 325 327 325 325 326 326 326 315 297 296 300 309 325 328 327 327 327 327 327 328 329 331 331 329 326 318 316 312 307 297 296 296 297 297 296 299 308 333 330
300 302 303 303 302 303 305 306 306 306 307 308 309 311 312 311 314 314 315 316 317 316 316 316 316 316 317 317 318 317 317 318 320 321 321 322 322 321 320 321 321 321 321 320 321 321 322 323 323 323 324 324 320 299 295 297 300 306 315 328 327 326 327 327 327 327 329 329 329 329 329 328 327 324 320 313 304 296 296 296 296 297 296 294 299
299 299 300 301 301 302 304 306 306 306 306 308 310 311 311 312 314 316 316 316 316 316 315 315 316 315 316 316 316 315 313 313 314 315 316 316 316 315 315 315 315 317 318 316 316 319 318 319 320 320 320 320 316 295 295 297 300 303 308 318 325 327 327 327 328 327 328 329 329 329 330 328 324 322 323 322 319 314 301 299 301 302 301 300 298
299 300 301 302 302 303 304 305 306 307 308 310 311 310 312 314 314 314 315 315 314 314 315 315 315 314 314 315 314 313 311 310 311 312 312 312 310 309 310 312 312 312 311 311 310 311 313 316 318 318 316 314 310 297 294 296 300 302 303 308 327 328 329 329 329 330 330 329 328 328 327 326 327 327 327 325 323 324 324 327 328 326 324 318 306
298 300 301 301 301 302 303 304 305 306 307 308 309 310 312 313 313 312 314 315 314 314 315 314 313 313 313 313 313 311 308 308 309 310 310 309 308 308 307 306 308 308 307 307 308 308 309 311 314 315 314 311 305 294 294 294 297 300 303 313 333 333 332 331 330 329 329 328 328 328 328 328 329 328 330 327 329 328 329 329 329 328 328 324 321
298 298 299 301 302 303 303 304 305 305 305 306 307 309 311 311 312 312 313 313 313 311 311 313 312 311 311 312 312 310 308 307 308 308 308 307 307 307 306 306 305 305 305 306 306 307 307 308 310 312 311 310 306 293 294 295 296 300 307 330 331 330 329 327 326 326 326 327 327 329 327 326 326 325 307 294 304 329 328 327 326 326 324 320 313
299 299 299 301 302 303 304 305 305 304 304 306 307 308 309 310 310 311 311 311 311 309 311 311 310 310 310 311 310 309 308 306 306 307 307 307 307 306 307 307 305 304 303 303 303 303 304 304 305 306 307 306 304 296 293 296 298 300 315 328 327 324 322 319 317 316 313 310 310 315 325 325 325 322 298 293 296 299 328 325 324 324 323 323 319
299 300 300 300 301 302 303 304 304 304 305 306 307 308 308 309 309 310 311 310 309 309 311 310 309 309 309 310 310 309 308 307 305 305 305 306 306 306 306 306 305 304 302 302 302 302 301 301 301 302 303 304 303 297 292 293 295 298 310 321 320 318 315 312 312 312 309 306 305 302 308 313 316 313 292 295 296 311 328 325 324 321 320 319 318
300 300 300 300 300 301 302 303 303 302 304 306 307 307 307 307 308 309 310 309 308 310 311 309 309 309 309 309 309 309 308 307 306 305 305 305 306 306 306 306 305 304 302 302 302 302 301 300 299 300 300 301 300 298 293 293 294 298 311 317 315 313 312 311 309 310 311 310 306 301 297 296 300 297 291 293 294 309 327 325 324 321 318 316 315
300 301 301 301 300 300 300 300 300 301 304 305 306 306 305 306 307 309 308 307 308 310 310 311 310 310 309 309 309 309 308 307 305 305 305 304 306 306 306 305 304 303 301 301 301 300 300 299 299 299 298 299 299 298 294 292 294 295 300 313 312 311 308 308 309 309 309 310 308 305 299 291 290 291 292 292 293 295 320 323 323 320 317 313 316
299 299 299 300 300 300 300 300 300 301 302 304 304 304 304 305 306 307 306 307 309 311 311 311 311 310 309 308 308 308 307 306 305 304 303 302 303 304 303 303 302 302 302 300 300 299 298 298 299 299 298 297 297 298 295 291 292 293 295 302 309 308 309 310 309 307 306 305 305 304 301 292 290 291 292 292 294 294 299 319 319 319 316 314 312
299 299 299 300 300 300 301 301 302 301 301 302 303 302 303 304 305 305 306 308 309 309 310 309 310 309 309 308 307 307 306 305 304 304 304 303 303 302 302 302 301 301 301 300 300 299 299 298 299 299 299 298 298 295 297 293 291 292 292 295 304 304 306 308 306 305 304 303 301 300 298 292 290 291 291 292 293 294 296 306 302 294 294 298 315
299 298 298 298 298 298 299 300 301 302 302 302 302 301 301 302 303 305 307 308 308 308 308 308 308 307 307 307 307 307 306 305 305 304 303 302 302 302 301 302 302 301 301 301 301 300 300 299 299 299 298 299 299 297 293 294 291 291 291 292 293 298 296 306 304 302 302 301 301 299 295 291 290 290 291 291 293 294 297 297 292 294 295 296 304
298 298 299 299 299 299 300 301 301 302 302 302 301 300 300 300 301 304 306 307 307 307 307 306 306 307 307 306 305 305 305 305 304 303 302 301 301 301 301 300 300 299 300 300 300 300 300 299 298 297 298 299 299 300 295 292 293 290 290 291 291 292 295 301 302 302 302 302 300 298 293 290 290 290 290 291 291 292 295 291 293 294 296 300 306
297 297 300 300 299 299 299 300 301 302 303 302 302 301 300 299 301 303 303 304 305 305 305 305 304 304 305 305 305 304 303 303 302 300 299 298 299 299 298 299 300 299 298 297 298 299 299 299 298 298 299 299 299 299 299 295 293 292 291 290 290 291 291 294 299 298 297 295 291 290 290 291 291 292 293 294 294 293 291 292 292 294 300 306 305
298 298 298 298 299 300 300 300 301 302 302 303 303 302 300 300 301 302 302 302 302 302 301 301 301 301 301 302 302 302 303 303 302 301 299 298 298 297 297 298 298 298 297 297 296 297 297 298 298 298 297 298 298 298 298 298 297 297 295 292 291 291 292 291 292 292 290 290 290 291 292 293 294 296 301 300 299 300 293 294 295 299 307 305 305
296 298 299 299 300 299 299 300 300 302 302 302 303 302 302 302 302 302 302 302 301 301 300 300 300 300 301 300 300 300 300 301 302 302 302 301 300 299 298 296 297 299 299 298 297 297 297 297 296 296 297 297 298 297 297 298 298 299 300 299 300 299 295 295 299 298 295 296 294 294 293 291 292 291 293 294 296 297 302 303 303 303 303 305 305
296 297 297 298 299 299 299 299 300 301 302 302 302 302 303 303 303 303 302 302 301 301 300 300 300 300 300 300 299 293 296 299 298 298 298 300 301 301 298 296 296 296 297 298 298 296 295 297 297 298 298 297 296 295 294 293 294 296 299 300 300 299 299 298 298 298 298 297 297 294 297 302 303 303 303 302 302 301 300 300 303 302 302 302 300
296 296 297 297 297 297 298 299 299 301 302 302 302 302 303 303 303 303 302 301 300 299 300 301 301 300 300 300 300 299 299 299 299 298 297 296 296 299 299 298 297 296 295 296 298 297 296 297 297 295 295 297 295 292 291 289 290 288 291 298 299 299 298 298 293 289 299 300 300 300 299 299 300 296 297 301 301 300 298 301 302 303 302 302 303
296 297 297 297 298 298 298 298 299 301 301 301 302 302 303 303 303 303 303 301 301 300 300 299 299 300 300 300 300 299 299 299 299 299 298 296 288 289 294 298 296 290 288 288 289 293 295 298 298 294 293 293 292 291 288 288 288 288 288 288 288 288 288 293 291 290 296 296 294 294 295 296 296 297 295 294 294 294 294 294 297 295 296 300 299
296 296 296 297 298 298 299 299 300 301 301 301 301 302 302 303 303 303 303 302 301 300 299 299 299 299 298 300 300 300 300 300 300 299 299 296 299 295 288 288 289 289 289 288 288 288 288 288 295 298 293 287 288 288 288 288 288 288 288 288 288 288 288 288 288 294 294 294 294 294 294 295 295 296 294 292 295 295 295 295 296 295 297 297 296
Wind_Speed
5 6 6 5 4 4 4 4 5 5 4 4 4 4 4 4 3 4 3 4 4 4 4 4 3 3 4 5 6 6 7 6 7 7 7 6 7 7 6 5 6 7 8 8 7 6 7 7 9 9 8 8 7 6 6 8 7 8 8 7 8 8 7 6 7 7 7 6 5 5 5 4 5 5 5 5 4 4 4 3 3 4 4 3 3
7 6 6 5 4 5 4 4 5 5 4 4 4 3 2 2 2 1 1 3 3 4 4 5 5 5 4 4 6 6 6 6 7 6 7 6 7 7 6 5 6 6 7 8 8 8 8 7 7 8 10 9 9 6 6 8 9 8 9 9 9 9 7 8 7 8 8 8 9 7 4 4 5 6 6 5 6 5 4 4 4 3 4 4 3
6 5 5 6 5 5 4 4 4 4 4 2 1 2 2 2 1 1 1 2 2 3 4 4 3 3 4 2 3 5 6 6 6 6 6 6 6 7 7 7 7 7 7 8 8 9 9 10 9 8 10 9 9 8 8 9 8 10 11 9 9 8 8 8 8 9 7 6 6 7 5 6 4 5 6 7 6 5 5 5 5 5 5 3 4
7 7 6 5 5 4 4 4 4 4 3 2 2 1 0 0 1 1 1 3 4 2 3 3 3 3 4 4 3 4 5 7 6 6 6 7 7 7 6 6 7 7 7 8 8 9 10 8 8 9 9 9 10 10 9 9 9 10 10 9 6 7 8 8 8 8 7 9 8 7 6 7 6 8 8 7 6 7 7 7 5 5 6 6 4
5 5 5 4 5 5 4 4 4 4 4 3 2 1 1 2 2 1 0 1 3 3 3 4 2 3 2 3 3 5 6 7 5 5 5 5 6 7 6 7 7 7 7 8 9 9 10 8 8 9 8 10 9 10 10 9 10 10 10 9 11 9 8 7 8 8 8 8 4 4 3 4 6 5 9 4 7 7 8 5 5 8 5 4 5
5 7 6 4 5 5 4 4 4 4 4 3 3 2 3 3 2 1 1 3 4 3 3 3 4 4 4 4 4 5 6 6 5 6 5 5 5 5 5 7 9 7 7 7 9 8 10 11 9 8 9 10 10 10 9 7 9 10 10 9 6 6 7 8 8 7 8 7 3 2 3 1 2 7 7 5 8 7 6 10 9 4 6 5 4
5 5 5 4 4 4 4 4 4 4 4 3 3 4 4 3 3 2 2 3 3 3 4 4 5 5 5 6 6 5 6 5 3 3 5 5 5 7 6 6 8 8 8 8 8 9 10 10 10 8 8 8 8 8 8 9 9 9 8 7 8 6 4 6 7 8 6 5 9 6 5 5 6 7 7 6 7 7 6 6 5 8 7 7 6
7 6 4 4 4 5 5 7 8 7 6 5 5 4 5 5 5 4 2 2 2 3 4 5 5 5 6 6 6 7 7 7 6 6 5 5 6 6 6 6 7 8 8 8 9 9 9 9 10 10 9 9 9 9 9 7 7 8 8 10 9 9 7 6 6 5 6 8 10 8 5 3 3 5 4 7 5 7 6 6 6 5 4 4 5
7 6 8 8 7 6 7 7 6 6 5 4 4 4 4 4 4 4 4 4 3 2 4 5 6 6 6 5 6 7 7 6 7 6 6 6 7 6 6 7 6 7 8 8 9 10 9 10 11 10 8 8 7 7 7 8 9 9 10 9 9 9 7 6 5 9 11 8 7 9 9 8 6 4 3 4 3 8 8 8 7 7 6 5 5
8 8 8 7 7 7 7 7 7 6 5 5 5 5 5 4 4 4 5 5 5 5 5 5 5 6 6 7 8 8 6 6 6 6 6 6 7 8 7 7 6 6 7 8 8 9 10 9 8 9 8 7 7 8 9 10 10 10 11 9 10 10 9 6 7 6 8 8 9 6 7 8 7 5 4 5 3 4 4 9 8 9 8 6 5
7 8 7 7 7 7 8 8 8 8 6 7 7 6 6 5 4 5 5 5 5 5 5 6 5 5 6 5 7 7 8 7 8 8 7 7 8 7 7 6 5 5 5 6 7 8 8 7 6 8 8 7 8 8 8 8 9 10 10 11 12 11 8 8 7 5 4 4 3 8 8 8 8 8 7 6 5 5 4 6 7 9 8 7 7
7 7 8 8 8 9 9 9 9 8 8 8 7 7 7 6 5 4 4 4 5 6 6 5 4 4 4 5 5 6 7 7 8 9 8 8 7 7 6 6 7 6 6 5 6 7 8 6 7 5 4 5 5 6 8 7 6 8 8 10 10 10 8 8 7 8 8 6 7 7 7 0 2 4 2 5 6 5 5 5 6 6 6 6 7
9 9 9 9 9 10 10 10 10 10 10 10 9 8 6 6 6 6 5 5 5 5 5 6 6 5 5 5 7 6 8 8 9 9 9 8 7 8 7 7 7 6 5 5 6 8 6 7 8 7 6 7 6 6 8 7 7 7 8 12 10 10 10 10 10 10 11 10 8 7 2 4 4 1 1 6 4 4 4 5 6 6 6 6 6
10 10 10 10 10 9 10 9 9 9 9 8 8 7 6 6 7 6 6 5 5 5 6 6 6 7 6 7 7 7 8 8 8 8 8 8 8 9 8 7 7 7 6 6 5 6 7 7 8 8 9 9 9 8 8 8 8 8 10 10 10 9 9 10 9 8 5 11 6 5 8 4 6 7 8 6 5 5 6 5 6 5 5 6 6
10 10 11 11 11 11 10 9 8 8 8 8 8 8 7 7 7 7 7 7 7 7 6 6 6 6 6 6 7 7 8 8 8 8 9 9 9 9 8 7 7 8 7 6 5 5 5 7 10 9 7 8 7 7 7 7 7 7 9 9 8 8 9 8 5 6 9 6 5 6 7 8 5 10 5 6 6 5 5 5 6 7 5 4 6
10 11 11 11 11 10 9 9 8 8 8 7 7 7 7 8 8 7 7 7 7 7 6 6 6 6 7 7 7 8 8 8 9 9 10 10 10 9 9 8 7 7 6 6 5 4 5 8 8 8 8 8 8 8 7 8 9 9 8 8 9 7 8 11 9 8 7 10 11 10 4 6 6 8 5 5 5 5 4 6 6 6 7 6 6
9 10 10 11 11 10 9 9 8 8 7 7 7 8 8 8 8 9 8 7 8 7 6 7 6 7 7 7 7 8 9 10 10 10 11 10 9 9 9 7 7 7 6 6 6 3 3 7 7 8 10 10 11 11 11 10 11 9 8 8 8 8 7 9 10 9 9 5 8 6 7 8 8 7 6 5 4 4 5 5 6 6 7 6 7
10 10 10 10 10 10 9 8 8 7 7 7 8 7 6 6 7 8 7 8 9 8 8 7 7 8 7 6 7 7 8 10 11 10 9 9 9 9 9 7 8 8 7 6 6 6 5 8 8 9 8 9 10 9 10 10 10 9 7 6 4 7 6 4 6 9 7 9 6 6 8 4 6 8 6 5 5 5 5 6 6 5 5 6 7
9 9 9 9 9 9 8 8 8 7 6 6 6 6 6 6 7 8 9 9 9 8 8 7 7 7 7 7 7 7 8 9 9 8 8 9 10 9 7 7 8 8 6 6 6 6 6 7 6 5 6 8 10 8 8 7 8 8 9 9 12 11 9 8 9 7 7 7 8 7 4 6 5 3 6 6 5 6 6 5 6 4 5 4 4
9 8 8 8 8 9 8 7 7 8 8 7 7 6 8 7 8 8 9 9 9 9 8 8 7 8 8 8 7 7 8 8 8 8 8 8 9 8 7 6 7 5 5 6 5 5 5 6 6 6 7 8 7 8 7 7 7 9 8 9 8 9 6 6 6 9 5 8 8 8 6 9 7 8 6 7 6 6 6 6 5 5 4 5 3
8 8 8 8 7 7 8 8 8 7 7 7 7 7 8 8 8 9 9 10 10 9 8 8 8 8 9 10 8 8 8 8 7 7 7 8 7 6 6 6 7 7 6 6 5 5 5 4 4 7 10 6 7 9 9 8 7 9 10 10 10 9 9 7 9 10 12 11 11 10 11 8 7 7 6 6 6 6 6 5 5 6 5 5 5
8 8 8 8 8 8 8 8 8 7 8 9 8 8 8 9 9 9 9 9 10 9 9 9 8 8 9 9 9 8 8 8 7 6 6 6 6 5 5 6 7 7 6 6 6 4 4 5 6 9 8 11 12 10 9 8 8 9 9 7 7 8 8 9 10 8 7 7 7 8 8 7 7 7 6 7 7 6 7 7 7 7 7 6 6
8 8 8 8 8 8 8 8 7 7 9 9 9 9 9 10 10 9 10 11 10 9 9 9 9 9 10 9 8 8 9 10 9 6 5 5 5 5 4 6 6 6 6 4 5 4 5 6 7 5 4 7 8 8 9 10 10 9 9 10 9 8 9 9 9 9 9 8 8 8 8 7 6 7 6 6 5 7 7 9 8 8 6 7 7
8 8 8 7 7 7 6 7 7 8 9 10 9 9 10 10 10 9 11 11 11 10 10 10 10 10 9 10 9 8 9 9 9 6 4 4 4 4 4 5 6 5 5 4 3 6 5 4 4 5 7 7 7 3 4 8 9 10 8 8 10 11 10 9 8 9 9 8 9 8 7 7 7 7 6 6 6 7 7 7 8 5 4 7 6
8 8 8 8 9 8 8 7 8 10 10 10 10 10 10 10 10 10 10 11 11 11 11 10 10 10 9 9 10 9 8 8 9 8 6 4 4 4 4 5 5 4 5 7 7 6 6 7 4 5 6 8 5 9 10 6 7 9 10 9 8 8 8 8 8 7 8 8 7 7 7 7 7 7 7 7 7 7 8 7 4 6 7 8 6
9 8 8 9 9 8 9 9 8 9 9 9 10 10 10 10 11 10 11 11 11 11 11 11 11 10 9 10 9 9 8 8 7 7 8 6 4 4 4 4 4 5 5 5 6 6 8 8 8 6 3 6 6 6 7 10 9 8 7 7 6 6 7 7 7 7 7 7 7 7 8 8 8 7 7 7 7 9 7 6 7 7 6 7 6
9 8 8 9 10 10 10 10 9 9 9 9 10 10 10 10 11 10 10 11 11 12 12 11 11 11 10 10 9 9 9 8 8 8 6 6 6 4 4 3 3 4 5 4 5 6 5 5 6 7 7 5 3 7 8 6 7 7 6 6 6 6 6 6 6 6 6 6 7 7 7 8 7 7 7 7 8 7 5 6 5 3 5 8 6
9 9 10 10 9 10 9 9 9 9 9 9 10 10 10 10 10 10 11 11 10 11 11 12 11 11 11 11 10 9 8 8 9 7 7 6 6 5 4 3 3 4 3 3 3 3 3 3 4 2 2 2 8 9 6 6 6 6 5 6 5 6 7 6 6 6 6 6 6 6 7 8 8 6 4 6 7 7 5 6 5 5 5 6 6
10 9 9 9 8 7 9 9 9 9 10 9 8 8 8 8 9 10 11 11 11 11 11 12 12 12 12 11 10 9 9 8 8 8 7 6 6 6 5 4 3 3 3 3 2 2 3 3 4 4 2 2 5 4 3 3 6 6 5 6 7 7 7 7 6 7 6 6 6 6 5 4 8 8 9 7 7 6 2 6 5 5 6 6 6
9 8 8 8 8 7 8 8 8 9 10 9 8 8 8 8 9 10 11 11 11 11 12 12 13 13 12 12 11 10 9 8 8 7 7 6 5 5 5 4 5 5 4 5 5 4 2 1 1 3 2 2 3 3 7 9 10 3 6 6 6 7 7 7 7 7 6 6 6 6 7 11 11 11 10 9 9 9 10 6 2 4 6 6 5
7 7 8 8 7 7 7 7 8 9 9 8 8 8 8 8 10 11 11 11 11 11 12 13 13 13 13 13 11 10 10 10 10 9 7 7 7 6 6 6 6 7 6 4 4 5 5 3 2 1 2 2 3 4 9 9 8 8 4 6 6 6 6 7 7 7 6 6 6 7 7 8 9 9 9 10 10 10 10 11 12 12 10 3 4
7 7 8 8 6 6 7 7 7 8 8 8 8 8 8 8 9 11 11 11 11 11 12 12 13 13 13 13 12 12 12 11 11 10 10 10 9 8 8 8 7 6 6 6 7 7 6 6 5 5 3 4 4 9 9 6 5 5 3 4 6 6 6 6 6 7 6 6 7 7 6 6 6 8 8 8 9 10 12 13 13 12 11 11 10
7 7 7 6 5 5 6 7 6 7 7 8 7 7 8 8 9 10 10 11 12 12 12 13 13 13 13 12 12 12 12 11 11 10 10 10 10 9 9 10 9 8 7 9 7 7 6 5 5 5 4 7 5 10 8 7 3 4 3 3 6 5 6 6 6 6 6 6 7 8 7 6 7 9 9 9 9 9 10 13 14 13 13 13 12
6 6 6 6 5 5 5 6 6 6 7 6 7 7 7 7 7 8 10 11 11 12 13 13 13 13 13 13 12 12 12 11 11 11 11 12 12 11 10 8 7 8 7 7 8 8 7 7 6 6 8 8 8 10 9 9 7 6 5 10 4 5 5 6 5 5 5 6 7 8 8 8 7 6 8 8 8 9 9 8 7 7 8 8 9
7 7 6 6 5 5 6 6 6 6 6 6 8 8 8 9 9 8 8 10 12 12 13 12 13 13 13 12 12 12 11 11 12 12 12 13 12 12 13 10 8 7 6 7 7 8 8 7 8 8 8 8 7 13 10 9 9 8 9 4 4 4 5 6 6 7 6 6 5 5 7 7 6 6 4 4 6 7 6 7 7 7 7 7 8
6 6 5 5 5 6 6 6 6 6 6 7 7 7 8 9 9 9 9 10 10 11 12 13 13 13 13 13 12 12 11 12 12 12 12 12 12 12 12 10 8 7 6 5 8 8 8 8 9 9 8 9 9 16 13 11 10 9 6 3 5 6 6 7 8 8 8 7 6 5 6 6 5 5 8 11 10 2 7 7 7 7 7 7 8
5 5 5 5 4 5 6 5 6 7 7 7 7 7 8 9 10 10 10 10 11 12 13 13 13 13 13 13 12 12 12 12 12 12 12 12 11 12 11 10 10 10 10 11 11 10 8 9 11 9 9 8 9 14 16 14 14 13 3 5 6 6 7 7 8 9 9 10 9 8 4 7 5 6 7 11 11 12 4 7 8 8 6 6 6
5 5 4 4 5 5 5 5 5 7 7 7 7 6 8 9 10 10 11 11 12 13 13 13 12 12 12 12 12 13 13 12 12 12 12 12 11 11 11 10 10 11 11 11 10 10 11 11 11 12 10 8 9 14 17 16 15 15 9 7 6 7 8 8 8 9 8 7 10 18 14 10 9 7 9 8 9 9 3 6 7 8 7 7 6
6 5 6 6 5 5 5 6 7 8 8 7 7 8 9 10 10 10 11 12 12 13 13 12 12 12 12 12 12 13 13 13 12 12 11 12 12 11 10 10 10 10 10 9 10 11 11 12 11 11 15 13 10 12 17 16 16 14 10 8 8 8 8 8 7 7 8 7 7 12 17 12 8 7 9 10 11 9 2 3 4 6 7 7 6
6 5 5 5 4 5 8 9 9 9 8 8 8 9 11 10 10 10 11 12 11 12 12 12 12 12 11 12 12 13 14 12 12 12 10 10 10 10 11 10 10 10 9 10 11 10 13 13 12 12 13 13 12 12 14 18 17 16 14 8 4 6 7 7 7 7 7 8 9 8 11 14 11 10 11 11 10 12 2 4 4 4 6 6 6
6 5 4 5 6 7 8 7 7 8 8 8 9 10 10 10 10 11 12 11 10 10 12 12 12 13 13 13 12 11 12 11 10 11 11 10 9 9 10 10 10 10 10 11 12 10 12 11 11 12 12 13 11 10 12 19 18 17 15 10 7 6 6 5 6 7 6 6 6 7 6 11 12 12 12 12 12 12 10 4 3 4 4 6 5
6 5 4 6 7 8 8 9 9 8 8 8 9 11 10 11 11 13 11 9 9 10 10 11 13 14 14 13 13 12 11 10 9 9 10 12 12 10 8 8 7 8 11 11 10 10 11 11 10 11 12 10 12 17 11 15 17 17 16 14 8 7 5 6 9 8 7 6 6 5 4 8 10 11 12 12 13 13 12 8 7 8 8 6 5
7 7 7 7 8 8 9 9 8 9 9 10 11 12 11 11 12 11 10 10 9 10 11 11 12 12 13 14 14 14 12 9 10 10 11 11 9 10 10 8 6 6 8 9 9 8 9 9 9 9 10 10 10 11 16 13 16 16 15 14 13 10 11 8 8 8 7 5 5 6 5 7 9 11 12 12 11 11 10 6 8 8 6 3 2
7 7 6 7 8 8 9 10 10 10 10 10 11 11 11 11 12 9 9 10 10 11 10 11 11 12 12 12 12 12 12 11 11 10 10 10 10 10 9 9 9 8 7 8 7 7 7 8 8 7 8 8 8 8 12 16 14 17 14 11 12 14 12 9 8 7 5 5 4 5 6 9 11 12 12 13 13 11 6 7 7 5 4 2 4
7 6 5 6 8 9 9 9 9 10 9 10 10 11 12 13 10 9 10 10 10 11 11 11 11 11 10 11 11 11 12 11 10 10 10 10 11 9 8 7 7 8 7 7 6 6 6 6 6 7 6 6 6 7 7 9 12 12 11 11 14 15 13 10 8 6 5 5 5 7 8 10 10 9 11 10 9 9 8 9 10 8 6 3 3
6 6 6 7 8 9 9 10 10 10 10 10 10 11 13 11 10 10 10 10 11 11 11 12 11 11 11 10 11 11 11 11 11 10 10 9 9 9 8 8 9 9 8 8 7 7 7 7 6 6 6 5 5 6 6 6 6 6 8 13 15 14 14 14 11 8 7 8 8 8 9 9 8 6 5 5 3 4 6 9 10 10 5 4 3
8 6 6 7 8 9 9 10 10 8 8 9 10 10 11 10 11 11 11 11 12 12 13 12 12 11 11 11 12 10 10 11 12 10 9 9 10 9 8 8 8 8 9 9 8 8 8 8 7 6 6 5 5 5 6 6 6 6 6 6 6 6 7 6 6 5 5 6 7 7 6 7 8 10 8 3 2 2 3 4 5 5 5 5 6
6 7 8 9 9 9 9 9 9 7 8 9 9 10 10 10 10 10 11 11 11 11 11 12 12 11 10 10 11 11 11 11 12 12 11 10 10 10 11 11 10 9 9 8 7 7 7 7 6 6 5 5 6 7 7 7 7 6 5 4 5 5 5 4 4 4 4 4 4 3 3 3 3 4 3 3 3 4 4 4 4 5 5 6 6
8 7 7 7 7 8 9 8 8 8 8 9 9 9 9 10 9 10 10 11 11 12 11 11 10 9 10 10 10 10 10 9 10 11 11 11 10 10 10 10 10 9 8 8 8 7 6 5 5 6 6 5 6 7 7 7 5 5 4 4 4 4 4 4 4 5 1 1 2 3 4 4 3 2 2 3 3 4 3 4 5 4 4 4 4
6 6 8 8 8 9 9 8 8 8 9 9 9 9 9 9 8 8 9 9 10 10 11 11 9 9 9 9 8 8 9 9 8 8 8 9 11 13 10 8 8 9 11 12 11 9 8 6 5 7 7 5 5 4 6 8 8 9 9 10 8 8 8 6 6 6 3 3 3 2 2 2 2 2 2 2 2 2 2 2 4 4 3 4 4
6 9 9 9 9 9 10 10 9 9 9 9 9 9 9 9 9 9 9 9 9 8 8 9 9 9 8 8 8 7 8 7 7 7 6 5 7 8 10 11 9 8 10 11 12 12 14 16 11 5 8 11 9 8 9 9 10 9 10 9 8 7 6 5 6 1 2 2 2 2 2 2 2 3 2 2 2 2 2 2 2 2 3 3 3
Wind_Direction
98 82 82 101 125 133 128 133 125 123 142 156 175 187 198 191 174 189 187 210 222 205 208 203 204 220 253 269 268 269 263 260 252 247 255 251 247 248 237 227 220 213 213 204 200 194 199 200 189 185 181 187 210 213 217 250 201 198 195 188 189 191 189 193 184 187 169 165 164 174 179 187 185 191 197 207 197 185 172 189 177 180 187 191 185
122 117 114 118 125 128 132 124 133 135 128 155 175 184 205 202 183 130 25 298 260 255 244 234 232 228 226 233 260 268 271 256 252 253 253 258 255 250 247 237 232 221 213 212 209 206 208 201 196 192 191 192 200 204 199 223 224 194 196 194 199 194 190 188 181 185 180 185 179 177 173 188 187 204 206 208 208 189 184 186 190 193 195 190 181
112 110 116 113 118 126 125 121 115 100 116 124 108 165 183 208 179 149 205 254 241 226 255 253 277 285 271 276 266 286 285 276 276 275 272 264 256 247 244 242 233 227 210 209 209 209 213 208 203 201 197 192 191 199 204 208 209 201 196 194 189 203 200 187 188 200 191 182 186 183 199 180 177 220 211 215 214 212 190 202 202 186 197 211 196
133 128 124 136 123 123 125 124 103 104 96 117 111 342 23 341 59 46 278 267 274 269 300 287 248 233 235 263 268 262 283 293 284 274 272 269 261 249 254 253 246 233 221 210 207 211 214 210 205 206 201 194 191 187 189 197 199 202 194 190 198 191 195 192 200 206 226 189 190 199 180 190 191 206 201 204 209 213 197 205 206 201 194 198 212
146 141 144 153 138 122 118 107 102 89 77 59 48 23 353 4 7 347 222 265 254 233 237 237 229 228 243 267 262 256 255 261 266 268 261 256 265 268 265 268 256 248 230 221 214 213 211 208 210 211 204 202 197 191 185 188 192 201 197 190 188 205 185 199 199 209 234 219 210 170 158 208 220 184 175 199 193 199 199 195 230 217 195 186 201
146 139 145 144 127 120 110 98 82 82 73 46 22 351 349 354 347 42 241 240 261 261 236 242 240 245 226 229 231 238 254 248 243 259 253 248 249 247 248 255 261 255 247 232 222 220 215 209 208 206 204 203 199 198 188 174 187 193 192 186 177 199 181 183 193 209 222 240 186 199 306 249 216 175 181 188 188 200 186 200 201 190 213 189 214
115 131 133 135 130 130 111 80 72 66 52 42 22 1 357 349 347 332 280 265 244 224 231 232 257 237 232 248 256 262 270 264 267 263 261 256 242 243 248 251 255 247 245 242 231 219 218 211 208 212 207 197 195 197 183 182 187 185 191 185 187 188 193 180 189 197 201 238 239 210 216 174 215 182 199 163 174 170 204 179 197 204 187 184 201
112 104 119 103 78 49 70 64 51 44 37 31 21 8 3 2 354 344 315 284 271 267 257 243 252 248 245 248 259 261 259 268 258 258 256 255 257 244 238 238 243 245 241 240 239 229 217 215 213 209 210 205 198 197 188 179 174 180 188 195 187 191 190 192 191 198 196 215 216 220 210 271 270 241 204 215 177 164 185 195 178 185 186 194 201
72 80 77 65 57 53 47 53 54 54 45 31 18 358 347 350 342 332 312 311 313 299 274 259 247 266 270 257 259 261 264 270 272 259 249 238 242 246 245 241 237 239 244 243 239 240 226 220 220 213 208 203 199 193 186 176 176 180 186 191 193 193 191 192 190 211 213 209 190 211 207 207 192 181 245 249 219 169 174 180 185 176 197 188 185
74 66 64 62 53 50 48 45 47 45 35 24 18 7 357 347 343 331 330 321 328 317 283 268 261 253 256 256 255 268 258 250 250 263 260 254 250 249 246 238 236 232 237 243 247 242 233 221 219 211 200 197 196 190 189 175 182 186 191 190 193 190 189 189 207 217 219 210 218 209 200 208 187 185 197 191 236 242 155 191 176 180 190 180 177
77 76 69 66 56 54 48 49 46 44 38 30 26 20 18 8 351 335 330 314 311 316 327 320 303 278 261 273 283 277 277 269 262 264 262 260 263 257 251 255 250 246 237 237 233 236 231 215 210 212 212 186 188 191 191 187 180 180 188 191 192 187 184 194 208 215 245 257 236 214 217 205 194 191 183 191 192 185 195 169 173 189 186 162 189
82 74 65 60 60 53 52 48 45 44 35 29 25 24 21 17 5 346 343 334 312 304 302 296 288 283 286 279 271 265 271 276 275 274 273 272 267 264 264 270 270 250 237 232 223 217 222 212 214 196 159 159 185 183 187 187 168 168 185 189 196 193 192 200 204 211 221 230 239 239 218 231 237 208 236 180 196 174 195 167 177 181 162 178 161
75 72 66 60 54 49 45 41 34 33 32 28 28 20 17 11 356 354 352 343 325 304 287 290 287 277 262 230 242 252 260 254 246 248 254 252 250 250 245 257 265 255 237 233 229 213 206 201 206 182 188 192 193 196 177 182 184 176 188 195 193 195 199 202 209 213 211 218 213 216 283 204 239 188 87 257 199 169 193 175 169 175 169 150 157
63 59 57 53 49 46 43 41 40 38 33 30 30 24 22 17 14 3 0 348 335 325 315 301 286 277 265 262 257 247 242 241 247 249 246 242 240 238 241 250 258 258 250 241 229 225 218 200 200 197 197 193 196 192 170 183 184 181 193 191 194 198 199 205 214 212 202 232 244 192 199 195 202 240 199 211 171 192 188 181 155 162 165 165 159
63 60 57 53 50 48 47 43 40 38 37 35 26 19 13 18 14 7 358 351 339 332 316 307 302 297 289 282 269 265 255 246 240 235 236 238 240 241 241 240 240 244 248 247 235 229 228 206 206 200 187 182 165 167 170 179 183 197 195 186 195 189 196 203 207 227 220 210 238 250 206 182 231 227 167 213 182 195 192 165 166 158 165 167 167
61 64 60 57 52 51 48 46 43 37 36 30 23 16 12 10 3 359 349 341 335 333 329 320 313 311 303 289 282 275 270 264 253 236 236 233 237 241 243 236 230 234 242 246 238 234 210 231 204 196 179 173 174 170 174 186 194 201 194 195 196 189 196 204 202 204 226 224 211 193 197 224 193 240 197 200 220 179 193 167 185 178 169 172 186
67 65 62 59 58 55 51 43 37 37 33 29 26 20 10 359 355 348 345 336 336 335 334 331 325 316 308 299 289 276 263 257 259 253 243 237 234 236 239 230 219 225 226 223 218 202 187 212 198 192 191 186 190 186 182 189 191 185 189 188 194 197 197 206 206 192 195 169 230 211 214 201 201 202 208 185 205 190 196 178 202 194 193 188 186
76 71 66 60 55 54 53 49 42 33 24 22 22 18 5 355 343 338 344 340 342 337 334 333 327 316 312 308 300 286 275 268 261 261 254 246 236 232 232 217 209 211 208 205 202 202 210 200 203 192 190 199 199 190 183 182 180 183 185 176 171 187 182 188 229 200 189 196 195 214 224 203 217 187 191 199 183 195 198 190 206 200 213 218 191
74 69 64 60 55 51 46 41 41 41 32 24 17 2 1 351 344 337 336 334 333 335 334 330 330 317 310 313 310 301 288 281 281 278 275 265 250 242 234 221 207 200 183 193 203 204 189 177 193 199 176 208 195 181 177 178 181 184 180 185 190 188 185 195 206 191 180 187 198 205 227 253 151 257 193 185 184 191 196 197 203 208 196 290 250
68 66 64 61 55 49 43 36 27 26 21 15 13 3 1 354 345 347 337 336 335 332 331 331 329 313 312 308 307 304 304 293 281 279 272 267 262 252 241 226 216 204 191 194 205 193 189 175 187 193 185 200 181 189 180 191 184 192 178 182 176 180 180 185 212 174 180 189 193 194 208 227 175 193 182 183 188 190 199 208 190 201 198 228 221
71 71 67 62 56 44 40 34 30 25 21 17 16 12 7 3 355 351 345 342 341 339 332 329 324 318 318 313 310 311 311 303 294 277 274 272 261 257 244 223 212 211 196 199 197 199 193 183 186 209 197 180 214 182 194 187 183 206 180 181 171 179 183 184 211 181 189 186 177 184 205 201 175 197 180 181 194 185 190 214 197 197 192 184 213
76 69 63 58 46 41 36 35 33 24 20 19 17 12 10 9 3 355 350 349 346 346 343 334 330 324 318 319 314 313 313 311 307 294 289 288 273 261 233 219 219 215 204 192 184 170 190 209 208 233 205 189 187 198 194 188 182 185 182 159 168 182 191 211 199 188 184 182 184 191 182 186 183 197 181 193 186 188 192 197 198 206 185 182 195
73 68 62 56 49 43 43 37 27 18 22 22 19 16 14 9 2 354 352 353 352 350 346 340 334 330 328 328 324 316 317 313 308 300 301 285 278 267 244 223 212 209 210 191 159 147 171 212 222 220 229 238 204 184 194 186 184 181 173 167 180 183 211 192 186 189 180 183 178 185 183 177 186 193 182 209 168 200 198 202 191 205 181 167 185
75 72 66 59 54 49 35 20 16 22 25 23 21 22 18 10 2 356 355 354 357 354 350 345 339 334 333 333 332 326 316 308 301 304 302 277 289 273 247 236 217 194 188 157 163 176 158 161 157 185 216 227 226 154 217 188 185 174 166 178 176 180 186 192 190 181 176 177 175 179 179 177 183 191 185 197 189 199 214 200 196 165 173 173 166
80 70 60 57 51 42 34 24 18 23 27 24 23 20 18 13 8 2 359 359 359 356 353 349 345 337 333 342 342 338 329 321 318 320 322 306 285 266 256 242 220 203 178 167 163 156 175 166 176 172 191 217 206 187 200 182 192 183 181 175 178 179 185 187 180 179 173 172 172 175 176 180 184 188 188 201 192 195 209 195 193 149 206 156 164
74 61 55 52 48 40 33 27 24 26 18 18 19 20 19 15 10 6 7 8 6 0 0 354 351 346 343 345 343 336 338 335 327 320 325 322 301 294 274 242 225 213 190 186 185 181 191 185 176 139 176 203 187 250 181 193 171 178 173 175 178 176 182 180 180 177 176 169 172 176 172 185 184 190 190 195 189 191 204 193 199 152 206 154 167
70 58 57 54 43 33 26 26 23 18 15 18 20 22 20 15 6 352 3 7 7 5 4 360 356 356 350 347 344 341 344 350 347 344 340 333 330 323 300 265 229 227 207 201 200 189 184 181 162 146 189 178 198 226 203 182 180 177 184 178 178 172 170 170 172 165 165 163 172 169 173 182 184 189 186 189 179 190 192 208 180 182 192 150 169
75 59 53 49 41 30 21 16 13 10 12 23 27 27 23 13 4 3 12 15 12 9 7 3 3 1 357 351 348 341 348 0 348 349 347 348 349 348 325 300 281 267 242 210 197 190 166 161 128 107 195 153 196 203 172 187 187 183 179 182 167 173 169 164 164 163 164 164 167 169 173 176 187 180 158 166 207 179 176 198 165 183 185 158 176
77 67 56 48 40 26 19 14 12 8 8 9 12 16 13 6 3 7 17 18 18 16 13 11 11 10 3 360 357 353 351 7 358 352 351 355 359 4 352 339 331 298 8 347 63 117 120 139 119 87 265 178 203 153 174 200 197 184 184 169 171 171 168 159 165 166 164 157 154 156 154 101 58 57 61 43 45 29 178 170 157 175 174 175 182
77 65 59 50 41 30 23 17 9 7 3 1 1 8 11 12 11 18 22 19 21 22 21 18 16 13 7 7 8 7 1 4 12 3 354 0 18 26 12 351 27 31 58 58 51 18 67 300 168 126 192 233 72 60 16 354 347 237 171 168 172 175 171 169 171 169 165 156 144 116 74 70 73 65 62 62 58 58 41 38 135 179 187 185 193
78 74 64 56 46 31 25 20 12 7 1 357 356 5 11 18 22 25 25 24 25 24 24 26 23 16 14 13 13 10 5 11 16 18 14 7 22 33 33 46 51 38 54 81 80 81 46 54 270 84 165 221 59 37 356 358 340 340 190 170 178 174 178 173 175 176 162 155 146 120 112 108 104 87 72 70 79 81 75 73 65 59 46 33 191
82 72 68 59 41 29 22 16 15 9 6 4 358 4 12 15 26 29 29 29 29 28 28 25 24 24 21 16 15 13 12 12 13 19 19 22 30 36 41 39 47 50 42 34 45 57 58 49 45 41 8 52 61 15 354 358 332 327 340 200 180 178 179 176 179 174 164 155 139 125 123 124 117 112 113 103 85 81 90 86 79 74 70 65 53
77 68 65 53 37 22 13 10 15 11 8 8 5 11 13 13 25 33 36 34 35 31 29 30 27 25 22 19 18 18 17 16 18 24 30 32 33 34 39 43 39 31 37 47 39 46 51 43 31 50 33 40 51 11 358 351 326 326 313 233 185 177 184 176 172 176 163 157 161 145 124 114 109 136 133 115 110 102 97 98 99 86 70 64 59
83 74 69 56 34 19 10 10 11 9 8 10 20 16 16 24 25 30 33 38 35 36 34 30 29 25 22 22 22 23 22 19 19 27 38 44 41 31 23 28 45 27 36 44 38 36 29 38 38 47 49 40 29 360 6 11 3 13 2 314 167 166 161 158 156 145 153 154 153 139 129 127 131 136 121 123 116 127 126 129 118 100 97 94 77
73 62 53 46 32 18 10 7 12 9 13 25 23 21 24 35 30 30 30 35 37 37 37 31 26 24 23 21 25 28 27 24 24 30 36 41 44 40 38 29 29 35 19 49 51 46 40 42 45 50 55 44 24 8 13 24 23 359 347 326 107 124 131 123 111 108 104 117 112 120 122 121 123 122 63 16 143 140 129 117 110 98 78 56 44
64 52 32 34 27 21 14 9 2 10 24 23 23 14 29 38 34 33 33 34 35 35 33 30 27 24 24 24 27 31 33 32 33 35 37 39 40 40 41 33 20 24 355 23 55 49 31 42 48 46 51 44 30 15 12 20 8 357 329 108 97 102 100 100 92 91 72 71 58 80 109 96 88 79 14 352 345 356 130 129 117 106 91 77 62
71 50 36 22 17 19 13 10 18 16 14 11 7 20 35 39 40 38 34 36 36 36 35 32 28 25 27 30 31 35 38 38 36 38 39 38 38 38 37 32 39 39 36 41 50 52 37 31 47 37 37 35 31 15 14 17 18 359 38 98 99 88 77 61 50 49 51 39 26 9 67 117 106 71 7 345 351 337 151 141 135 125 127 120 101
81 73 62 42 30 17 19 14 25 33 17 7 9 23 42 44 44 41 40 38 38 35 38 35 33 28 31 35 37 37 40 40 42 43 44 45 44 44 42 40 43 42 42 44 48 53 50 45 41 41 28 30 30 18 15 17 12 9 25 71 74 77 71 60 56 59 67 64 38 30 35 39 35 38 344 2 348 320 184 149 145 141 141 137 125
74 68 64 48 33 29 29 39 41 42 26 15 24 36 43 48 43 43 41 41 37 38 40 39 39 37 37 41 44 46 45 46 49 48 47 48 48 50 49 47 46 46 42 41 47 52 54 50 42 42 31 33 28 19 16 20 22 28 41 52 54 65 59 56 63 56 64 68 68 44 38 38 34 354 2 17 2 337 160 139 153 148 143 141 135
84 68 61 57 51 56 45 39 37 33 25 30 45 51 48 44 44 43 42 38 36 41 43 45 46 46 45 45 49 54 55 50 49 51 52 52 53 52 51 52 50 46 43 46 49 50 58 52 45 46 42 34 33 30 19 24 27 26 37 61 57 71 67 67 59 53 48 42 44 45 29 20 16 19 25 24 21 10 9 145 153 158 150 137 147
93 78 68 75 64 56 50 43 39 33 33 38 52 58 55 50 46 46 41 32 30 42 48 50 50 52 51 50 48 49 49 48 53 60 55 46 41 50 53 52 52 53 52 52 51 48 58 56 48 49 48 42 30 26 25 27 31 31 30 45 62 67 85 75 75 69 53 46 48 45 43 14 15 31 31 28 30 33 25 47 39 84 74 76 119
86 78 77 80 69 61 57 51 44 43 46 48 54 59 56 56 53 47 40 33 33 37 44 50 55 54 53 53 52 53 56 55 46 49 59 60 56 49 44 52 55 56 59 58 55 56 57 55 49 47 48 43 34 32 34 28 32 36 36 37 62 52 44 88 78 74 67 66 57 50 39 13 18 41 43 39 42 44 45 68 56 68 58 45 106
100 84 65 78 82 74 66 63 53 48 47 47 50 56 56 54 52 46 43 43 40 43 44 46 51 54 56 61 63 63 61 54 51 50 54 53 46 47 44 37 33 45 58 61 59 58 55 52 47 42 42 42 36 35 37 36 28 34 36 42 48 53 50 68 87 83 75 68 70 78 65 45 46 49 47 43 42 46 59 56 63 62 58 32 121
78 78 71 78 88 86 80 69 63 55 50 50 53 55 50 50 49 45 50 51 52 50 49 49 50 53 57 59 57 52 50 46 42 41 46 52 52 50 43 36 31 31 33 41 38 40 53 65 60 43 36 34 35 33 39 39 34 34 29 32 51 56 57 71 72 81 78 71 65 69 82 76 70 67 61 55 47 40 44 40 43 45 14 27 89
78 66 72 89 87 87 84 77 67 61 57 57 55 56 53 51 44 44 49 52 54 55 56 55 50 47 54 62 60 59 56 52 48 43 43 39 38 35 40 27 32 32 38 42 33 30 40 46 59 65 58 44 29 30 38 35 36 44 40 40 48 53 50 59 73 60 63 80 96 86 83 81 83 77 69 61 51 38 31 31 19 349 304 72 60
73 74 83 93 93 89 87 82 72 64 63 57 55 57 60 56 54 50 50 55 58 58 58 57 56 52 48 49 57 58 53 54 59 60 56 51 45 38 34 30 34 36 35 33 25 27 29 32 42 49 55 55 40 40 39 30 16 29 37 45 50 54 61 64 70 76 75 67 57 61 59 57 48 52 65 64 59 42 32 33 22 14 39 42 56
60 49 78 96 96 91 86 81 76 65 64 63 62 65 66 66 63 63 60 59 61 63 61 59 57 59 54 50 47 45 49 42 38 42 51 56 56 49 43 35 29 29 34 32 30 25 23 26 32 33 35 38 48 42 31 22 17 17 29 39 49 53 50 61 73 66 56 52 51 56 83 92 99 84 84 91 102 293 24 35 38 38 41 37 36
53 53 58 67 69 76 79 81 78 74 71 67 66 64 64 65 67 66 67 64 62 60 63 65 63 59 57 58 59 47 50 57 49 43 36 32 40 49 49 38 24 16 18 28 29 24 18 14 13 13 18 33 35 34 21 8 3 5 11 26 38 40 42 43 49 57 78 95 94 123 105 106 101 109 102 96 73 61 51 51 60 63 64 65 65
77 62 57 58 62 68 68 71 75 78 79 75 69 66 65 65 66 70 68 69 67 65 62 63 63 66 66 63 63 62 60 60 63 60 55 41 27 31 49 59 43 31 23 13 18 24 17 15 20 16 7 18 33 26 10 354 5 12 19 21 33 44 44 51 27 0 27 110 98 82 84 74 73 74 78 77 72 63 54 51 52 57 60 54 52
84 81 77 77 75 78 79 80 81 83 84 78 73 67 61 60 60 65 72 74 74 71 67 60 56 58 62 64 65 67 66 64 61 65 77 82 64 49 38 46 61 49 44 39 35 32 5 353 45 45 27 27 32 19 1 16 30 35 42 53 54 48 36 41 26 8 26 66 34 38 35 50 84 93 79 65 55 60 64 63 59 45 54 64 75
109 94 87 85 87 89 90 88 90 92 87 80 72 67 63 59 60 59 58 62 65 67 68 69 64 57 48 58 61 59 57 57 57 58 59 66 89 84 70 68 71 66 57 52 50 43 37 29 18 64 77 57 39 28 29 29 30 33 38 36 36 34 35 28 1 357 77 65 73 67 53 45 46 57 64 70 74 82 86 89 83 64 61 65 78